{"data":{"norad_id":64209,"intl_designator":"2025-117G","name":"STARLINK-33944","alt_names":[],"object_type":"PAYLOAD","status":"ACTIVE","operator":null,"country":"US","launch_date":"2025-05-31","launch_site_code":"AFWTR","launch_vehicle":null,"mission":null,"orbit_class":"UNKNOWN","rcs_meters":null,"size_class":null,"mass_kg":null,"dimensions":null,"purposes":["comms"],"wikipedia_slug":null,"has_3d_model":false,"image_url":null,"decayed_at":null,"tle_current":{"epoch":"2026-05-25T00:20:20.075136Z","epoch_age_seconds":69882,"freshness":"FRESH","line1":"1 64209U 25117G   26145.01412124  .00012302  00000+0  42674-3 0  9993","line2":"2 64209  53.1574  44.9273 0000918  71.3822 288.7279 15.30203996 56246","mean_motion":15.30203996,"eccentricity":9.18e-5,"inclination_deg":53.1574,"raan_deg":44.9273,"arg_perigee_deg":71.3822,"mean_anomaly_deg":288.7279,"bstar":0.00042674,"rev_number":5624,"period_min":94.105099958189,"perigee_km":474.57400148489,"apogee_km":475.83227473425,"semimajor_km":6853.3401381096,"source":"CELESTRAK","updated_at":"2026-05-25T13:38:20.317881Z"}}}